Location: Riverton
(43.0250°N, 108.3790°W)
Time: 13:34:44
(UTC-07:00)

FO-29 - Visible Passes

Search period start: 27 February 2017 00:00
Search period end: 09 March 2017 00:00
Orbit: 801 x 1321 km, 98.6° (Epoch: 26 February)

Date Brightness Start Highest point End Pass type
(mag) Time Alt. Az. Time Alt. Az. Time Alt. Az.
27 Feb 12.3 00:18:57 10° N 00:20:08 15° N 00:20:08 15° N visible
27 Feb 12.3 23:23:35 10° N 23:24:31 14° N 23:24:31 14° N visible
28 Feb 12.4 01:10:16 10° NNW 01:11:01 12° NNW 01:11:01 12° NNW visible
28 Feb 12.4 22:28:53 10° NNE 22:28:55 10° NNE 22:28:55 10° NNE visible
01 Mar 12.3 00:14:05 10° N 00:15:24 15° N 00:15:24 15° N visible
01 Mar 12.2 23:18:45 10° NNE 23:19:47 15° NNE 23:19:47 15° NNE visible
02 Mar 12.4 01:05:20 10° NNW 01:06:17 13° NNW 01:06:17 13° NNW visible
02 Mar 12.3 22:24:06 10° NNE 22:24:10 10° NNE 22:24:10 10° NNE visible
03 Mar 12.2 00:09:12 10° N 00:10:40 16° N 00:10:40 16° N visible
03 Mar 12.2 23:13:55 10° NNE 23:15:03 15° NNE 23:15:03 15° NNE visible
04 Mar 12.3 01:00:24 10° NNW 01:01:32 13° NNW 01:01:32 13° NNW visible
04 Mar 12.3 22:19:20 10° NNE 22:19:25 10° NNE 22:19:25 10° NNE visible
05 Mar 12.1 00:04:20 10° N 00:05:55 17° N 00:05:55 17° N visible
05 Mar 12.1 23:09:06 10° NNE 23:10:18 16° NNE 23:10:18 16° NNE visible
06 Mar 12.3 00:55:28 10° NNW 00:56:46 14° NNW 00:56:46 14° NNW visible
06 Mar 12.2 22:14:35 10° NNE 22:14:39 10° NNE 22:14:39 10° NNE visible
06 Mar 12.1 23:59:28 10° N 00:01:09 17° N 00:01:09 17° N visible
07 Mar 12.1 23:04:16 10° NNE 23:05:30 16° NNE 23:05:30 16° NNE visible
08 Mar 12.2 00:50:33 10° N 00:52:00 14° NNW 00:52:00 14° NNW visible
08 Mar 12.2 22:09:50 10° NNE 22:09:53 10° NNE 22:09:53 10° NNE visible
